星链-36866(STARLINK-36866)

导读

STARLINK-36866是美国SpaceX星链计划的低轨通信卫星,于2026年2月21日发射升空。作为星链星座扩容的组成部分,它依托星链低轨布局,可服务全球互联网覆盖,满足偏远地区通信、航海航空联网等多元需求,进一步扩充星链星座的通信服务容量与覆盖范围。

Basic Information
目录编号:
67895
目录名称:
STARLINK-36866
国际标识:
2026-035S
轨道中心:
EARTH
卫星名称:
星链-36866
卫星全名:
星链-36866(STARLINK-36866)
卫星状态:
在轨 (已飞行195 天)
发射日期:
2026-02-21 UTC
国别 :
美国 (US)
星等 :
--
Orbit Information
数据来源 国际轨道数据
星历时间: 2026-09-04T01:53:35+0800
14小时前
查看轨道信息
半长轴: 6843.679km
偏心率: 0.0001699
轨道倾角: 97.284°
近地点辐角 100.666°
升交点赤经 178.805°
平近点角 259.478°
近地点: 464.379km
远地点: 466.705km
周期: 93.906分钟
每日圈数: 15.334454
Detailed Information
固有亮度:
5
最大亮度:
2.5
卫星平台:
Starlink V1.0
覆盖范围:
全球
运营商:
太空探索技术公司
运营商所在国:
美国
制造商(研发单位):
太空探索技术公司
制造商所在国:
美国
使用方式:
暂无
Satellite Introduction
Starlink 计划是 SpaceX 推出的全球卫星互联网项目,通过发射低轨道卫星,为全球尤其是偏远地区提供高速、低延迟的互联网服务。自 2019 年起,Starlink 已部署数千颗卫星,旨在缩小全球数字鸿沟,推动互联网普及。该项目还为军事、航空等行业提供通信支持,带来广泛经济效益。
2D Orbit Map
3D Orbit Map
Orbit Altitude Analysis Chart
Orbit Inclination Analysis Chart
Orbit Comprehensive Analysis Chart
View Comprehensive Chart
Conjunction Data List
Event ID Objects TCA Miss Dist (km) Collision Risk Probability Collision Risk Index (CRI) Action
CDM_260830-192005-511106-789521
2026-08-30T
19:20:57+0000
2.469 km
极远距离
1.807465E-6 低风险 0.4
CDM_260905-155105-286606-789521
2026-09-05T
15:51:33+0000
2.657 km
极远距离
1.423381E-6 低风险 0.38
CDM_260830-174705-511106-789521
2026-08-30T
17:47:01+0000
2.899 km
极远距离
1.406134E-6 低风险 0.38